User: anonymous   Login
Location: Unspecified
(0.0000°N, 0.0000°E)
Time: 08:24:43
(UTC+00:00)
Language:

AALTO 1 - Orbit

View from above orbital plane
View from above orbital plane
View from above satellite
View from above satellite

Ground track
Ground track

The orbit data is extracted from the following two-line orbital elements,

1 42775U 17036L   23088.81800954  .00027066  00000-0  86311-3 0  9991
2 42775  97.1638 121.2797 0011470  41.1331 319.0774 15.32425315320351
Epoch (UTC): 29 March 2023 19:37:56
Eccentricity: 0.0011470
inclination: 97.1638°
perigee height: 461 km
apogee height: 476 km
right ascension of ascending node: 121.2797°
argument of perigee: 41.1331°
revolutions per day: 15.32425315
mean anomaly at epoch: 319.0774°
orbit number at epoch: 32035

The dashed part of the orbit path shows where the satellite is in the earth's shadow,  

DLR